Location: Appeville
(49.3218°N, 1.3427°W)
Time: 06:07:09
(UTC+00:00)

Cosmos 1464 Rocket - Pass Details

Date: 08 December 2019
Orbit: 953 x 1001 km, 82.9° (Epoch: 25 January)

Event Time Altitude Azimuth Distance (km) Brightness Sun altitude
Rises 04:24:27 0° 180° (S) 3,655 7.0 -31.9°
Reaches altitude 10° 04:26:58 10° 179° (S) 2,705 6.3 -31.5°
Maximum altitude 04:33:07 74° 96° (E) 1,005 4.1 -30.5°
Drops below altitude 10° 04:39:16 10° 13° (NNE) 2,698 6.4 -29.5°
Sets 04:41:46 0° 11° (NNE) 3,645 7.1 -29.1°
